SCP
0 0 0 0 0 0 0 0 0 0 0 0 0 0 0 0 0 0 0 0 0 0 0 0 0 0 0 0 0 0 -0 0 0 0 0 0 0 0 0 0 0 0 0
0 0 0 0 0 0 0 0 0 0 0 0 0 0 0 0 0 0 0 0 0 0 0 0 0 0 0 0 0 -0 -0 0 0 0 0 0 0 0 0 0 0 0 0
0 0 0 0 0 0 0 0 0 0 0 0 0 0 0 0 0 0 0 0 0 0 0 0 0 0 0 0 0 0 -0 0 0 0 0 0 0 0 0 0 0 0 0
0 0 0 0 0 0 0 0 0 0 0 0 0 0 0 0 0 0 -0 -0 0 0 0 0 0 0 0 0 0 0 0 0 0 0 0 0 0 0 0 0 0 0 0
0 0 0 0 0 0 0 0 0 0 0 0 0 0 0 0 0 0 0 0 0 0 0 0 0 0 0 0 0 0 0 0 0 0 0 0 0 0 0 0 0 0 0
0 0 0 0 0 0 0 0 0 0 0 0 0 0 0 0 0 0 0 0 0 0 0 0 0 0 0 0 0 0 0 0 0 0 0 0 0 0 0 0 0 0 0
0 0 0 0 0 0 0 0 0 0 0 0 0 0 0 0 0 0 0 0 0 0 0 0 0 0 0 0 0 0 0 0 0 0 0 0 0 0 0 0 0 0 0
0 0 0 0 0 0 0 0 0 0 0 0 0 0 0 0 0 0 0 0 0 0 0 0 0 0 0 0 0 0 0 0 0 0 0 0 0 0 0 0 0 0 0
0 0 0 0 0 0 0 0 0 0 0 0 0 0 0 0 0 0 0 0 0 0 0 0 0 0 0 0 0 0 0 0 0 0 0 0 0 0 0 0 0 0 0
0 0 0 0 0 0 0 0 0 0 0 0 0 0 0 0 0 0 0 0 0 0 0 0 0 0 0 0 0 0 0 0 0 0 0 0 0 0 0 0 0 0 0
0 0 0 0 0 0 0 0 0 0 0 0 0 0 0 0 0 0 0 0 0 0 0 0 0 0 0 0 0 0 0 0 0 0 0 0 0 0 0 0 0 0 0
0 0 0 0 0 0 0 0 0 0 0 0 0 0 0 0 0 0 0 0 0 0 0 0 0 0 0 0 0 0 0 0 0 0 0 0 0 0 0 0 0 0 0
0 0 0 0 0 0 0 0 0 0 0 0 0 0 0 0 0 0 0 0 0 0 0 0 0 0 0 0 0 0 0 0 0 0 0 0 0 0 0 0 0 0 0
0 0 0 0 0 0 0 0 0 0 0 0 0 0 0 0 0 0 0 0 0 0 0 0 0 0 0 0 0 0 0 0 0 0 0 0 0 0 0 0 0 0 0
0 0 0 0 0 0 0 0 0 0 0 0 0 0 0 0 0 0 0 0 0 0 0 0 0 0 0 0 0 0 0 0 0 0 0 0 0 0 0 0 0 0 0
0 0 0 0 0 0 0 0 0 0 0 0 0 0 0 0 0 0 0 0 0 0 0 0 0 0 0 0 0 0 0 0 0 0 0 0 0 0 0 0 0 0 0
0 0 0 0 0 0 0 0 0 0 0 0 0 0 0 0 0 0 0 0 0 0 0 0 0 0 0 0 0 0 0 0 0 0 0 0 0 0 0 0 0 0 0
0 0 0 0 0 0 0 0 0 0 0 0 0 0 0 0 0 0 0 0 0 0 0 0 0 0 0 0 0 0 0 0 0 0 0 0 0 0 0 0 0 0 0
0 0 0 0 0 0 0 0 0 0 0 0 0 0 0 0 0 0 0 0 0 0 0 0 0 0 0 0 0 0 0 0 0 0 0 0 0 0 0 0 0 0 0
0 0 0 0 0 0 0 0 0 0 0 0 0 0 0 0 0 0 0 0 0 0 0 0 0 0 0 0 0 0 0 0 0 0 0 0 0 0 0 0 0 0 0
0 0 0 0 0 0 0 0 0 0 0 0 0 0 0 0 0 0 0 0 0 0 0 0 0 0 0 0 0 0 0 0 0 0 0 0 0 0 0 0 0 0 0
0 0 0 0 0 0 0 0 0 0 0 0 0 0 0 0 0 0 0 0 0 0 0 0 0 0 0 0 0 0 0 0 0 0 0 0 0 0 0 0 0 0 0
0 0 0 0 0 0 0 0 0 0 0 0 0 0 0 0 0 0 0 0 0 0 0 0 0 0 0 0 0 0 0 0 0 0 0 0 0 0 0 0 0 0 0
0 0 0 -0 -0 0 0 0 0 0 0 0 0 0 0 0 0 0 0 0 0 0 0 0 0 0 0 0 0 0 0 0 0 0 0 0 0 0 0 0 0 0 0
0 0 0 0 0 0 0 0 0 0 0 0 0 0 0 0 0 0 0 0 0 0 0 0 0 0 0 0 0 0 0 0 0 0 0 0 0 0 0 0 0 0 0
0 0 0 0 0 0 0 0 0 0 0 0 0 0 0 0 0 0 0 0 0 0 0 0 0 0 0 0 0 0 0 0 0 0 0 0 0 0 0 0 0 0 0
Wind_Speed
3 2 2 2 2 2 2 2 3 4 4 5 5 5 5 5 5 5 6 10 10 9 9 9 9 9 10 10 10 11 11 11 10 11 11 12 11 10 10 11 11 8 4
3 2 3 3 3 2 3 2 4 4 4 5 6 6 6 6 6 5 5 8 10 11 11 11 11 11 11 10 11 11 12 12 11 11 11 12 13 12 12 12 12 12 9
3 3 3 3 3 3 3 3 5 4 4 5 6 6 6 6 6 6 6 5 6 10 12 12 12 12 12 11 12 12 12 13 13 12 12 12 12 13 13 13 13 13 11
5 4 3 3 3 2 2 3 3 4 4 4 5 5 5 5 6 6 6 6 5 5 10 12 13 13 13 12 13 13 13 13 13 12 12 12 12 13 13 13 14 13 12
5 4 3 3 3 3 3 3 3 3 4 4 5 5 5 5 5 6 7 7 7 5 6 8 10 13 13 14 14 14 13 13 14 14 13 13 12 12 13 13 13 13 13
5 4 3 4 3 3 3 3 4 3 3 3 5 5 5 5 5 5 6 6 6 7 7 7 5 8 12 14 14 14 14 14 14 14 14 14 13 12 13 12 12 12 12
4 4 3 4 3 3 3 4 3 5 4 3 4 5 5 6 6 5 5 5 6 6 7 7 6 5 5 10 14 15 15 14 14 14 14 13 12 12 12 12 12 12 11
5 4 4 4 3 3 3 4 3 2 3 1 1 2 3 4 4 5 4 4 5 5 6 7 7 7 6 5 9 14 14 14 14 14 14 13 13 12 11 12 12 12 10
5 5 5 4 3 3 3 2 2 2 2 2 2 1 0 2 3 4 5 5 5 5 5 6 7 7 7 6 7 11 14 13 14 14 14 14 14 13 12 12 11 11 11
5 5 4 4 4 3 3 3 2 1 1 1 2 2 2 2 1 3 3 5 5 6 6 5 6 7 7 6 8 12 13 12 13 14 13 13 13 13 12 12 12 11 11
5 5 4 4 4 3 4 3 3 2 1 1 1 2 2 1 0 2 3 3 4 5 5 5 5 6 7 7 7 11 12 12 12 13 13 13 13 13 12 12 12 12 11
4 5 4 4 4 3 4 3 3 3 2 2 1 1 1 1 1 2 3 3 3 4 5 5 5 5 5 6 9 11 12 12 12 12 13 12 13 13 13 13 12 12 12
3 4 4 4 4 4 4 3 3 3 3 3 2 2 2 2 2 2 3 3 3 3 3 4 4 4 5 5 6 8 11 12 12 12 12 12 13 13 13 13 13 12 12
3 4 4 4 4 4 4 3 3 3 3 3 4 3 3 3 3 2 2 2 3 3 3 4 4 5 4 4 6 4 8 11 11 11 12 12 12 13 13 13 13 13 12
3 4 4 4 4 4 4 4 4 4 4 4 4 4 3 3 3 2 2 1 1 2 3 3 3 4 4 4 5 4 7 10 10 10 11 11 12 12 12 13 13 13 13
4 4 4 4 4 4 4 4 4 4 5 5 3 4 4 3 3 2 2 2 1 1 2 3 3 3 4 3 5 5 6 7 10 10 10 10 11 11 11 12 12 12 12
5 4 3 3 4 4 4 4 4 4 4 5 4 5 5 4 3 2 2 2 2 2 3 3 3 3 3 4 4 4 4 4 6 10 10 9 9 10 10 11 11 11 11
4 4 4 3 4 3 3 4 4 4 4 4 4 5 4 3 3 3 2 3 3 3 2 3 3 3 3 4 3 3 3 4 5 8 9 9 10 9 9 9 10 10 10
5 5 4 4 4 4 4 4 4 4 4 4 4 4 4 4 3 3 2 3 2 2 2 2 3 2 2 2 2 2 4 3 3 4 5 7 8 8 8 8 8 9 9
5 5 5 4 4 4 3 3 4 3 4 4 3 3 3 3 3 3 3 3 2 2 2 2 2 2 1 2 1 2 2 2 2 3 4 3 4 4 5 6 7 7 7
5 5 5 4 4 3 2 2 3 3 3 3 3 3 4 5 6 4 2 2 2 1 1 1 1 1 1 1 2 2 2 1 2 2 2 2 2 2 2 3 4 6 6
5 5 5 5 4 3 3 1 1 3 3 3 3 3 4 4 4 4 4 5 4 2 1 0 0 1 2 2 2 2 2 2 1 2 3 2 2 2 2 3 5 5 5
6 5 5 5 5 4 6 5 2 2 2 2 2 2 2 2 2 4 5 5 2 2 3 3 2 2 2 2 2 2 2 3 3 2 3 2 2 2 2 2 3 2 4
6 6 5 5 5 5 7 6 5 4 3 3 2 2 2 2 2 1 2 2 1 2 1 2 2 2 3 3 3 3 3 3 2 1 2 3 3 3 3 1 2 0 2
7 6 5 6 6 6 8 7 7 5 4 4 3 2 2 2 3 1 2 2 2 2 3 2 3 2 3 3 4 3 3 3 2 1 1 3 3 4 4 3 1 3 3
6 6 5 6 6 5 8 9 9 5 5 4 3 3 2 1 3 3 4 3 2 1 2 3 3 4 3 2 3 3 3 3 3 2 1 3 3 4 4 2 3 3 3
Wind_Direction
60 67 72 71 64 72 92 79 89 88 84 86 78 73 76 74 73 72 84 64 52 53 52 50 47 45 43 43 39 36 32 28 26 25 23 21 26 33 35 30 27 29 38
60 56 71 67 62 61 65 84 88 92 87 83 81 76 69 73 77 76 79 90 71 55 50 51 49 43 42 42 41 38 35 31 30 30 31 31 34 39 38 34 33 34 43
54 53 56 69 66 80 98 84 93 96 97 97 88 79 71 63 70 72 68 67 84 76 58 49 47 42 42 42 42 40 38 34 33 35 38 39 38 40 40 37 38 38 45
53 56 53 67 67 78 96 98 103 103 95 91 85 78 79 68 64 64 69 69 58 66 75 58 49 44 42 41 41 40 40 38 37 41 44 42 40 41 41 41 42 41 46
52 64 52 57 75 78 82 99 97 99 97 95 92 82 73 67 62 56 65 66 64 57 69 84 69 51 42 39 39 39 40 41 41 45 46 43 42 42 43 44 43 44 50
50 64 75 71 74 85 85 94 100 96 99 106 95 84 73 71 63 56 59 66 58 55 52 55 72 73 54 42 37 37 38 40 43 44 44 43 42 42 43 44 44 47 54
57 65 63 69 63 78 81 100 113 120 115 114 117 106 91 73 66 62 55 58 63 55 54 50 48 47 66 63 42 36 35 39 42 43 43 42 42 43 43 42 44 49 55
56 63 71 81 80 84 89 94 106 114 112 117 148 148 136 109 70 58 62 57 54 58 52 49 52 49 40 48 56 37 31 34 40 41 40 40 41 41 42 41 48 47 55
60 58 62 67 72 81 90 91 109 117 126 110 36 348 77 102 111 75 57 59 51 48 50 45 47 47 47 47 48 43 31 31 36 39 40 41 40 40 41 41 44 47 54
68 60 64 62 71 70 84 91 86 95 112 117 98 32 30 80 141 123 90 69 61 53 47 42 41 44 43 49 55 43 32 32 34 37 39 42 41 42 43 42 47 52 55
70 67 63 67 70 72 71 73 75 55 65 44 69 104 94 100 35 115 112 99 80 60 50 42 43 40 42 46 45 41 34 34 33 34 37 40 40 41 43 45 49 54 58
88 80 71 69 71 71 72 71 74 72 56 57 50 71 92 82 105 95 113 107 88 72 64 51 44 42 41 48 50 37 38 35 35 35 36 38 38 39 41 45 50 55 59
97 86 81 75 70 69 73 74 77 72 79 69 57 58 56 57 68 87 114 110 101 95 80 66 47 43 42 48 52 33 48 37 36 38 39 39 39 40 41 43 47 51 56
94 91 86 80 79 77 80 74 70 71 73 80 74 72 73 72 76 84 93 118 121 107 81 71 56 45 38 46 40 11 57 43 37 38 40 41 40 41 42 43 45 48 51
111 108 100 96 87 80 76 80 73 77 75 73 81 86 77 77 74 71 71 36 47 116 95 66 55 43 40 47 20 41 55 50 41 41 41 42 43 43 45 47 47 47 47
122 122 120 111 107 104 93 80 80 75 89 83 75 80 78 85 78 77 61 44 17 40 84 73 63 55 42 54 42 46 63 72 55 44 43 44 45 45 47 49 50 47 45
147 134 121 115 110 109 107 98 88 92 93 98 98 92 86 79 88 81 74 74 60 63 97 96 88 78 69 55 51 45 50 56 68 51 44 44 45 45 48 50 49 48 45
149 142 131 125 112 104 101 104 102 99 90 88 91 94 95 94 83 72 64 76 79 80 100 104 97 73 60 54 47 43 50 55 63 67 51 47 46 46 47 47 46 45 43
163 158 151 143 132 122 119 120 116 109 99 91 88 90 93 100 101 94 83 78 80 82 87 104 84 68 62 51 50 49 59 47 55 83 76 65 54 49 48 47 47 44 42
168 167 158 151 140 138 139 132 123 118 110 104 99 90 82 85 88 101 100 93 91 94 90 89 87 89 75 44 18 26 41 40 29 37 42 55 78 78 70 60 52 44 39
171 167 167 164 153 158 143 144 138 132 125 121 118 105 80 58 40 36 39 78 106 119 114 95 86 80 67 36 12 349 2 353 41 15 354 11 20 30 63 87 66 41 29
178 173 181 173 169 161 121 124 233 157 147 142 134 128 125 130 112 101 60 35 14 5 19 33 2 20 19 21 355 323 334 321 347 17 330 350 347 355 2 21 46 33 20
181 184 189 183 186 159 150 166 210 222 175 163 158 143 126 123 172 149 145 160 118 48 349 321 330 351 341 358 323 317 335 332 334 353 322 321 339 340 344 36 72 23 8
182 189 191 191 189 168 161 171 185 206 190 183 186 181 177 169 137 186 166 158 121 98 28 296 329 351 351 346 319 313 314 295 285 301 312 304 325 320 320 331 114 38 329
186 189 186 193 197 176 166 177 197 195 194 192 188 196 216 184 115 225 225 197 179 144 112 80 27 24 19 353 315 278 280 281 295 317 340 303 311 314 302 286 191 187 240
188 186 185 195 201 197 168 184 211 208 204 195 190 191 173 246 141 219 230 220 227 209 189 172 185 196 213 177 231 275 296 291 299 306 9 309 304 311 299 291 303 283 263